Lid_Strength_Index
1 1 1 0 0 0 0 0 1 0 0 0 1 2 2 1 1 2 4 4 5 7 6 5 5 6 6 6 9 7 7 7 8 11 11 11 13 11 12 10 11 12 14 14 14 16 18 9 7 10 9 7 7 7
2 1 1 1 1 0 1 0 1 1 1 0 1 2 2 2 1 2 5 4 3 6 7 3 3 2 3 4 6 6 7 7 7 10 10 10 12 11 11 14 8 13 10 12 11 13 9 8 7 6 6 7 6 6
2 1 1 1 1 1 1 1 1 1 1 0 1 2 2 2 2 2 5 5 6 7 7 6 6 3 2 2 1 7 6 5 6 4 7 9 12 9 13 12 10 8 7 10 10 8 8 7 6 5 5 6 5 5
2 1 1 1 1 1 1 1 1 1 1 1 2 2 2 2 2 2 4 5 6 8 11 9 5 5 2 2 3 3 4 4 4 4 8 10 12 7 11 9 10 8 7 9 10 9 8 6 5 5 5 5 5 5
2 1 1 1 1 1 1 1 2 1 1 1 2 2 2 2 2 3 3 5 4 8 10 10 6 5 5 5 5 5 5 6 7 8 9 10 8 9 8 9 11 7 9 10 11 7 7 7 5 5 5 5 5 5
2 2 2 1 1 1 1 1 1 1 1 2 3 3 3 3 3 5 7 4 4 5 9 11 6 7 6 7 7 7 7 8 9 10 11 9 8 10 13 13 8 7 6 6 7 5 6 5 6 6 5 5 5 5
2 2 2 2 2 2 1 2 2 2 2 3 3 3 3 3 4 7 8 6 4 5 9 12 11 7 7 7 8 9 8 9 10 11 11 11 10 10 13 15 10 8 7 6 6 6 7 6 7 5 4 4 5 5
2 2 2 2 2 2 2 2 2 2 2 3 3 3 3 4 5 6 5 4 4 7 8 12 12 10 7 9 9 8 10 10 10 11 11 11 10 11 15 11 10 9 8 8 7 6 5 5 4 5 4 5 6 6
2 3 2 2 2 2 3 2 2 2 2 3 3 4 4 5 7 6 4 5 5 8 12 12 14 14 8 9 7 8 10 13 9 12 11 11 13 15 13 12 11 9 8 7 6 5 5 6 6 5 5 6 6 6
3 2 2 3 3 3 2 2 2 2 3 3 4 6 7 6 4 5 7 10 10 10 11 14 12 13 11 10 9 10 8 11 13 11 10 13 15 11 10 8 8 6 6 6 7 7 7 7 7 6 6 5 5 5
3 3 3 3 3 2 2 2 2 2 4 4 6 8 6 3 6 8 11 13 13 14 14 13 13 13 9 12 11 9 12 13 14 12 14 14 15 11 8 7 6 5 5 5 5 5 5 5 6 6 5 5 5 4
3 3 3 3 3 2 2 2 2 3 4 5 6 5 6 6 8 10 10 11 12 13 11 12 11 12 10 8 10 10 13 12 14 9 13 15 11 10 9 8 8 8 5 5 5 5 5 5 5 5 5 5 4 4
3 3 3 3 2 2 2 2 2 2 3 4 6 7 7 8 13 14 15 13 11 8 7 7 9 8 8 7 8 9 12 13 8 12 14 11 9 9 9 8 9 9 8 6 6 6 5 5 4 4 5 4 4 4
3 3 3 3 2 2 2 2 2 3 2 5 7 12 10 11 10 10 11 10 8 7 8 7 8 8 7 9 9 12 10 9 13 15 14 10 9 8 8 8 8 9 9 9 9 8 7 7 7 6 5 5 5 6
3 3 3 3 2 2 2 2 2 1 3 6 6 11 9 7 7 7 7 7 7 7 6 7 7 7 9 10 9 10 12 14 13 14 11 9 8 9 9 8 9 9 9 9 8 9 8 8 8 8 8 8 8 8
3 3 2 3 2 2 2 2 0 1 3 5 6 8 6 7 8 7 7 8 6 7 5 6 8 10 11 10 12 13 13 14 12 10 9 8 8 9 9 9 9 8 8 8 8 8 9 8 8 9 8 8 8 8
3 2 3 3 2 3 3 0 1 4 5 6 7 5 6 6 7 7 6 7 5 6 8 7 11 11 9 12 13 13 14 12 9 9 8 8 8 8 7 8 8 8 8 8 8 7 7 8 9 10 10 10 9 9
3 2 3 3 2 2 1 1 3 5 7 6 7 6 6 5 6 6 5 5 6 6 7 8 8 11 12 13 12 10 10 9 8 8 9 8 8 7 7 7 7 7 8 8 7 8 8 8 8 9 8 9 9 9
3 3 3 3 2 2 3 3 3 7 6 5 4 4 5 6 4 4 4 4 4 5 5 7 9 10 10 8 8 8 8 8 7 8 8 8 7 7 7 7 7 7 7 8 8 8 7 7 7 7 7 7 9 9
3 3 3 3 2 2 4 4 2 5 7 5 4 5 5 5 4 4 5 5 5 7 8 9 9 8 8 7 7 7 7 7 7 7 8 8 7 7 8 8 8 7 7 7 7 8 7 7 7 7 7 8 8 8
2 2 2 2 2 3 4 4 5 4 5 6 5 5 6 4 5 5 6 4 7 7 9 7 8 7 7 7 7 6 7 7 8 8 8 8 7 7 7 7 7 7 8 8 8 7 7 8 7 7 7 7 7 7
1 2 1 1 3 4 4 4 4 4 5 6 6 5 6 7 6 5 4 6 6 5 5 7 7 7 7 7 7 7 7 6 6 7 7 8 8 8 8 8 8 8 8 8 8 8 7 7 7 7 7 8 8 8
2 2 2 3 5 6 6 3 6 5 8 7 6 7 7 7 5 4 6 5 5 4 4 5 6 6 7 7 6 6 7 7 7 8 7 7 7 7 7 7 7 8 8 8 7 7 7 8 7 7 7 7 7 8
3 3 5 6 6 8 5 6 5 6 6 7 8 9 8 7 5 6 7 6 4 3 5 5 6 7 6 6 7 8 8 7 7 7 7 7 8 8 8 8 7 7 7 7 7 7 7 7 8 7 7 7 8 8
7 7 6 10 5 7 8 8 7 7 9 8 9 9 8 5 8 8 8 6 4 4 3 5 6 6 7 7 7 7 7 8 8 8 8 7 7 7 7 7 7 7 6 7 7 7 7 7 7 7 7 8 8 8
10 6 8 7 7 8 8 9 8 9 8 9 8 7 6 7 9 9 7 5 4 4 3 3 5 6 7 7 7 7 8 7 7 8 8 8 8 8 8 8 8 8 6 6 7 7 7 7 8 8 8 8 9 8
9 7 5 4 5 6 6 6 5 7 9 9 8 8 8 10 9 7 4 3 3 2 2 3 3 5 6 7 7 7 7 7 7 8 7 7 8 7 8 9 9 7 6 6 6 7 7 7 8 8 8 7 7 7
6 6 8 6 6 5 7 7 8 8 7 6 6 9 9 9 8 5 4 2 2 3 5 6 5 6 7 7 7 7 7 7 7 7 7 7 6 7 7 7 7 8 6 6 6 6 6 7 7 7 7 7 7 6
6 5 5 7 7 6 6 7 7 5 4 5 7 7 6 5 4 4 3 2 3 5 6 6 7 7 7 7 7 7 6 6 7 8 8 8 8 7 6 6 6 6 6 5 8 7 6 6 6 6 6 6 6 5
6 4 6 7 7 8 6 4 5 4 4 3 4 5 5 5 4 3 4 4 5 5 5 6 7 7 7 7 7 7 6 5 6 6 7 8 7 6 5 5 5 5 5 5 5 5 7 5 6 5 6 6 6 6
5 5 6 6 7 5 4 4 4 4 4 5 5 5 5 4 3 4 4 4 5 6 7 8 7 7 6 6 6 6 6 5 6 6 5 5 5 5 5 5 5 5 5 5 5 5 5 5 6 6 6 6 6 6
5 6 7 8 7 4 5 5 5 5 5 5 5 5 4 5 6 4 5 6 7 7 7 6 6 6 5 4 4 4 7 5 5 5 5 5 5 5 5 5 5 5 5 5 5 5 5 6 6 6 6 6 6 5
5 5 6 6 6 7 5 5 6 6 6 6 5 5 5 5 7 5 5 5 5 5 6 5 5 5 4 5 5 4 6 4 5 7 7 7 7 7 5 5 5 5 5 5 5 5 5 6 5 5 5 5 5 5